Clinton-Sherman, OK

10:05 PM CDT on September 25, 2017 (GMT -0500)
Clinton-Sherman

Weather History for KCSM - June, 2012

Change the Weather History Date:

Monday, June 4, 2012

  Actual Average Record
Temperature  
Mean Temperature 80 °F -  
Max Temperature 91 °F 83 °F 102 °F (2008)
Min Temperature 72 °F 61 °F 55 °F (1998)
Cooling Degree Days 16    
Growing Degree Days 30 (Base 50)    
Moisture  
Dew Point 62 °F    
Average Humidity 57    
Maximum Humidity 73    
Minimum Humidity 43    
Precipitation  
Precipitation 0.00 in - - ()
Sea Level Pressure  
Sea Level Pressure 29.84 in    
Wind  
Wind Speed 10 mph (ESE)    
Max Wind Speed 17 mph    
Max Gust Speed 21 mph    
Visibility 10 miles    
Events Rain , Thunderstorm    
Averages and records for this station are not official NWS values.
T = Trace of Precipitation, MM = Missing Value Source: NWS Daily Summary

Daily Weather History Graph

Daily Weather History Graph

Search for Another Location

Airport or City:

Trip Planner

Search our weather history database for the weather conditions in past years. The results will help you decide how hot, cold, wet, or windy it might be!

Date:

Astronomy

Jun. 04, 2012 Rise Set
Actual Time 6:22 AM CDT 8:48 PM CDT
Civil Twilight 5:52 AM CDT 9:18 PM CDT
Nautical Twilight 5:16 AM CDT 9:54 PM CDT
Astronomical Twilight 4:36 AM CDT 10:34 PM CDT
Moon 9:20 PM CDT (6/4) 6:30 AM CDT (6/4)
Length of Visible Light 15h 25m
Length of Day
14h 26m
Full, 100% of the Moon is Illuminated
Jun 4
Full
Jun 11
Last Quarter
Jun 19
New
Jun 26
First Quarter
Jul 3
Full

Hourly Weather History & Observations

Time (CDT) Temp. Heat Index Dew Point Humidity Pressure Visibility Wind Dir Wind Speed Gust Speed Precip Events Conditions
12:53 AM 81.0 °F 81.9 °F 62.1 °F 52% 29.71 in 10.0 mi SSE 12.7 mph - 0.00 in   Clear
1:53 AM 81.0 °F 82.2 °F 63.0 °F 54% 29.70 in 10.0 mi South 15.0 mph - N/A   Clear
2:53 AM 78.1 °F - 63.0 °F 60% 29.72 in 10.0 mi WSW 11.5 mph - N/A   Clear
3:53 AM 77.0 °F - 62.1 °F 60% 29.74 in 10.0 mi SW 13.8 mph - N/A   Clear
5:53 AM 72.0 °F - 62.1 °F 71% 29.79 in 10.0 mi Calm Calm - N/A   Partly Cloudy
6:53 AM 75.9 °F - 57.9 °F 54% 29.80 in 10.0 mi NNW 11.5 mph - N/A   Partly Cloudy
7:16 AM 75.2 °F - 59.0 °F 57% 29.89 in 10.0 mi WNW 5.8 mph - N/A Thunderstorm Partly Cloudy
7:31 AM 77.0 °F - 55.4 °F 47% 29.88 in 10.0 mi NW 12.7 mph 16.1 mph N/A   Partly Cloudy
7:51 AM 77.0 °F - 57.2 °F 50% 29.90 in 10.0 mi East 10.4 mph 20.7 mph N/A Thunderstorm Thunderstorm
7:53 AM 77.0 °F - 57.0 °F 50% 29.81 in 10.0 mi East 10.4 mph 20.7 mph N/A Thunderstorm Thunderstorm
8:06 AM 73.4 °F - 60.8 °F 65% 29.91 in 10.0 mi SE 5.8 mph - 0.00 in Rain Light Rain
8:46 AM 73.4 °F - 60.8 °F 65% 29.93 in 10.0 mi East 10.4 mph - 0.00 in Thunderstorm Scattered Clouds
8:53 AM 75.0 °F - 60.1 °F 60% 29.85 in 10.0 mi East 13.8 mph 19.6 mph 0.00 in Thunderstorm Scattered Clouds
9:01 AM 73.4 °F - 60.8 °F 65% 29.93 in 10.0 mi ESE 13.8 mph - N/A   Partly Cloudy
9:36 AM 73.4 °F - 64.4 °F 73% 29.95 in 10.0 mi Calm Calm - N/A Thunderstorm Clear
9:51 AM 73.4 °F - 62.6 °F 69% 29.95 in 10.0 mi South 5.8 mph - N/A   Clear
9:53 AM 75.0 °F - 63.0 °F 66% 29.87 in 10.0 mi South 4.6 mph - N/A   Clear
10:53 AM 75.9 °F - 63.0 °F 64% 29.86 in 10.0 mi East 3.5 mph - N/A   Clear
12:53 PM 82.9 °F 84.0 °F 63.0 °F 51% 29.86 in 10.0 mi Calm Calm - N/A   Clear
1:53 PM 86.0 °F 86.8 °F 63.0 °F 46% 29.84 in 10.0 mi Variable 4.6 mph - N/A   Clear
2:53 PM 88.0 °F 89.6 °F 64.9 °F 46% 29.83 in 10.0 mi Variable 4.6 mph - N/A   Clear
3:53 PM 89.1 °F 90.3 °F 64.0 °F 43% 29.82 in 10.0 mi East 11.5 mph - N/A   Clear
4:53 PM 87.1 °F 89.9 °F 66.9 °F 51% 29.82 in 10.0 mi SE 13.8 mph 18.4 mph N/A   Clear
5:53 PM 87.1 °F 89.9 °F 66.9 °F 51% 29.80 in 10.0 mi ESE 17.3 mph - N/A   Clear
6:53 PM 86.0 °F 87.6 °F 64.9 °F 49% 29.79 in 10.0 mi East 16.1 mph - N/A   Clear
7:53 PM 86.0 °F 86.8 °F 63.0 °F 46% 29.80 in 10.0 mi ESE 15.0 mph - N/A   Clear
8:53 PM 82.0 °F 83.1 °F 63.0 °F 52% 29.83 in 10.0 mi East 9.2 mph - N/A   Clear
9:53 PM 78.1 °F - 64.9 °F 64% 29.84 in 10.0 mi ESE 6.9 mph - N/A   Clear
10:53 PM 77.0 °F - 64.9 °F 66% 29.86 in 10.0 mi ESE 5.8 mph - N/A   Clear
11:53 PM 77.0 °F - 64.9 °F 66% 29.86 in 10.0 mi ESE 6.9 mph - N/A   Clear